Find Starlink 5670

NORAD ID: 55341 Int'l Des: 2023-013 Owner: SPXS Country: US Constellation: starlink operational
LEOCIRCULAR

Current View

Loading 3D Globe...

About Starlink 5670

Starlink 5670 (NORAD 55341) is a starlink constellation satellite (v1.5) launched Jan 26, 2023 by SPXS of US. It operates in LEO, CIRCULAR orbit with a mass of 305.00 kg.

About Starlink 5670

Description loading...

Upcoming Passes

Passes for default location (London). Set your location on the main map for personalized predictions.

Altitude History

Loading altitude history...

Two-Line Element Set

1 55341U 23013L 26167.51432656 .00001098 00000-0 49420-4 0 9992
2 55341 43.0011 105.6189 0000993 260.7417 99.3322 15.27571920186784
Epoch: Jun 16, 2026 • Age: 44 hours

Current Status

Altitude 486.7 km
Velocity 7.63 km/s
Sub-Earth Point 42.39°N, 135.82°E
Launch Date Jan 26, 2023
Age 3.3 years
Type internet

Technical Details

Classification Payload
Mass 305.00 kg
Dry Mass 290.00 kg
Total Mass 305.00 kg
Length 0.20 m
Diameter 2.80 m
Span 9.00 m
Shape Box + pan
Manufacturer SPXS
Bus Type Starlink
Phase Status In Orbit
Owner/State SPXS/US

Most Searched